This is the latest recevied weather packets stored in our database for station/object AB8XS. If no packets are shown the sender has not sent any weather packets the latest 10 day(s).
| Time | Temp. | Humidity | Pressure | Rain* | Wind** | Luminosity | Snow |
|---|---|---|---|---|---|---|---|
| 1777613146 | 5.56° C | 70% | 1014.2 hPa | 0 mm | - | 0 W/m² | - |
| 1777611616 | 6.11° C | 75% | 1014.1 hPa | 0 mm | - | 0 W/m² | - |
| 1777610116 | 6.67° C | 81% | 1014 hPa | 0 mm | - | 0 W/m² | - |
| 1777608316 | 6.67° C | 81% | 1014.2 hPa | 0 mm | - | 0 W/m² | - |
| 1777604416 | 6.67° C | 81% | 1014.4 hPa | 0 mm | - | 0 W/m² | - |
| 1777604116 | 6.67° C | 81% | 1014.5 hPa | 0 mm | - | 0 W/m² | - |
| 1777603231 | 6.67° C | 81% | 1014.5 hPa | 0 mm | - | 0 W/m² | - |
| 1777602946 | 6.67° C | 81% | 1014.5 hPa | 0 mm | - | 0 W/m² | - |
| 1777602316 | 6.67° C | 80% | 1014.5 hPa | 0 mm | - | 0 W/m² | - |
| 1777598116 | 7.22° C | 78% | 1014.2 hPa | 0 mm | - | 0 W/m² | - |
| 1777594516 | 7.78° C | 71% | 1014 hPa | 0 mm | - | 26 W/m² | - |
| 1777593616 | 7.78° C | 71% | 1014 hPa | 0 mm | - | 28 W/m² | - |
| 1777593316 | 7.78° C | 70% | 1013.9 hPa | 0 mm | - | 26 W/m² | - |
| 1777592146 | 7.78° C | 69% | 1014 hPa | 0 mm | - | 35 W/m² | - |
| 1777591216 | 7.78° C | 68% | 1013.9 hPa | 0 mm | - | 46 W/m² | - |
| 1777589731 | 7.78° C | 68% | 1014.3 hPa | 0 mm | - | 57 W/m² | - |
| 1777589446 | 7.78° C | 67% | 1014.3 hPa | 0 mm | - | 57 W/m² | - |
| 1777588516 | 8.33° C | 67% | 1014.4 hPa | 0 mm | - | 68 W/m² | - |
| 1777588216 | 8.33° C | 67% | 1014.4 hPa | 0 mm | - | 79 W/m² | - |
| 1777585816 | 8.33° C | 66% | 1014.5 hPa | 0 mm | - | 134 W/m² | - |
| 1777585516 | 8.33° C | 67% | 1014.5 hPa | 0 mm | - | 193 W/m² | - |
| 1777585216 | 8.33° C | 69% | 1014.5 hPa | 0 mm | - | 193 W/m² | - |
| 1777581016 | 9.44° C | 68% | 1015.2 hPa | 0 mm | - | 226 W/m² | - |
| 1777580416 | 9.44° C | 67% | 1015.3 hPa | 0 mm | - | 294 W/m² | - |
| 1777579546 | 10° C | 62% | 1015.4 hPa | 0 mm | - | 529 W/m² | - |
* Rain latest hour (hover to see other rain measurements)
** Current wind speed in m/s (hover to see current wind gust speed)